Hourly Weather Cegielnia

Today, 25 June, Friday

Time Temperature Precipitation Wind Pressure Humidity
00:00 +20°C° 0.3 mm 1 mps 751 mmHg 97%
01:00 +20°C° 0 mm 1 mps 750 mmHg 98%
02:00 +20°C° 0.2 mm 1 mps 750 mmHg 98%
03:00 +20°C° 0.2 mm 1 mps 750 mmHg 98%
04:00 +19°C° 0.2 mm 2 mps 750 mmHg 98%
05:00 +19°C° 0.3 mm 2 mps 750 mmHg 97%
06:00 +19°C° 0.3 mm 3 mps 751 mmHg 97%
07:00 +19°C° 0 mm 3 mps 751 mmHg 96%
08:00 +20°C° 0.2 mm 3 mps 751 mmHg 93%
09:00 +21°C° 0.2 mm 3 mps 751 mmHg 90%
10:00 +21°C° 0.2 mm 3 mps 752 mmHg 87%
11:00 +21°C° 0.1 mm 3 mps 752 mmHg 84%
12:00 +22°C° 0.1 mm 3 mps 752 mmHg 82%
13:00 +22°C° 0.1 mm 3 mps 752 mmHg 80%
14:00 +22°C° 0 mm 3 mps 752 mmHg 78%
15:00 +22°C° 0 mm 3 mps 752 mmHg 77%
16:00 +22°C° 0 mm 4 mps 751 mmHg 76%
17:00 +21°C° 0 mm 3 mps 751 mmHg 79%
18:00 +20°C° 0 mm 3 mps 752 mmHg 83%
19:00 +20°C° 0 mm 3 mps 752 mmHg 86%
20:00 +18°C° 0 mm 3 mps 752 mmHg 89%
21:00 +17°C° 0 mm 2 mps 752 mmHg 92%
22:00 +16°C° 0 mm 2 mps 752 mmHg 95%
23:00 +16°C° 0 mm 2 mps 752 mmHg 95%

Tomorrow, 26 June, Saturday

Time Temperature Precipitation Wind Pressure Humidity
00:00 +15°C° 0 mm 2 mps 752 mmHg 94%
01:00 +15°C° 0 mm 2 mps 752 mmHg 94%
02:00 +14°C° 0 mm 2 mps 752 mmHg 94%
03:00 +14°C° 0 mm 2 mps 752 mmHg 94%
04:00 +14°C° 0 mm 2 mps 752 mmHg 94%
05:00 +15°C° 0 mm 2 mps 753 mmHg 88%
06:00 +17°C° 0 mm 3 mps 753 mmHg 83%
07:00 +19°C° 0 mm 3 mps 753 mmHg 77%
08:00 +20°C° 0 mm 3 mps 753 mmHg 73%
09:00 +21°C° 0 mm 3 mps 753 mmHg 68%
10:00 +22°C° 0 mm 4 mps 753 mmHg 64%
11:00 +22°C° 0 mm 4 mps 753 mmHg 63%
12:00 +23°C° 0 mm 4 mps 753 mmHg 62%
13:00 +23°C° 0 mm 4 mps 753 mmHg 61%
14:00 +23°C° 0 mm 4 mps 753 mmHg 63%
15:00 +22°C° 0 mm 3 mps 753 mmHg 66%
16:00 +22°C° 0 mm 3 mps 753 mmHg 68%
17:00 +21°C° 0 mm 3 mps 753 mmHg 73%
18:00 +20°C° 0 mm 3 mps 753 mmHg 78%
19:00 +19°C° 0 mm 2 mps 753 mmHg 83%
20:00 +18°C° 0 mm 2 mps 753 mmHg 86%
21:00 +16°C° 0 mm 2 mps 753 mmHg 90%
22:00 +15°C° 0 mm 2 mps 753 mmHg 94%
23:00 +15°C° 0 mm 2 mps 753 mmHg 95%

Day after tomorrow, 27 June, Sunday

Time Temperature Precipitation Wind Pressure Humidity
00:00 +14°C° 0 mm 2 mps 754 mmHg 96%
01:00 +14°C° 0 mm 2 mps 754 mmHg 97%
02:00 +14°C° 0 mm 2 mps 754 mmHg 97%
03:00 +14°C° 0 mm 2 mps 754 mmHg 97%
04:00 +14°C° 0 mm 1 mps 754 mmHg 97%
05:00 +15°C° 0 mm 1 mps 754 mmHg 92%
06:00 +17°C° 0 mm 2 mps 754 mmHg 87%
07:00 +18°C° 0 mm 2 mps 754 mmHg 81%
08:00 +20°C° 0 mm 2 mps 754 mmHg 74%
09:00 +21°C° 0 mm 2 mps 754 mmHg 67%
10:00 +22°C° 0 mm 3 mps 754 mmHg 60%
11:00 +22°C° 0 mm 3 mps 754 mmHg 57%
12:00 +24°C° 0 mm 3 mps 754 mmHg 54%
13:00 +24°C° 0 mm 3 mps 753 mmHg 52%
14:00 +24°C° 0 mm 3 mps 753 mmHg 53%
15:00 +24°C° 0 mm 3 mps 753 mmHg 54%
16:00 +24°C° 0 mm 3 mps 753 mmHg 56%
17:00 +23°C° 0 mm 2 mps 753 mmHg 64%
18:00 +21°C° 0 mm 2 mps 753 mmHg 72%
19:00 +20°C° 0 mm 2 mps 753 mmHg 80%
20:00 +18°C° 0 mm 2 mps 753 mmHg 83%
21:00 +17°C° 0 mm 2 mps 753 mmHg 87%
22:00 +16°C° 0 mm 1 mps 753 mmHg 91%
23:00 +15°C° 0 mm 1 mps 753 mmHg 91%

28 June, Monday

Time Temperature Precipitation Wind Pressure Humidity
00:00 +15°C° 0 mm 1 mps 753 mmHg 91%
01:00 +13°C° 0 mm 0 mps 753 mmHg 92%
02:00 +14°C° 0 mm 1 mps 753 mmHg 92%
03:00 +14°C° 0 mm 1 mps 753 mmHg 92%
04:00 +14°C° 0 mm 1 mps 753 mmHg 92%
05:00 +16°C° 0 mm 1 mps 753 mmHg 85%
06:00 +19°C° 0 mm 1 mps 753 mmHg 78%
07:00 +21°C° 0 mm 1 mps 753 mmHg 72%
08:00 +21°C° 0 mm 2 mps 753 mmHg 67%
09:00 +23°C° 0 mm 2 mps 754 mmHg 63%
10:00 +24°C° 0 mm 3 mps 754 mmHg 58%
11:00 +24°C° 0.2 mm 3 mps 753 mmHg 59%
12:00 +25°C° 0.2 mm 3 mps 753 mmHg 59%
13:00 +25°C° 0.2 mm 3 mps 753 mmHg 60%
14:00 +25°C° 0.4 mm 3 mps 753 mmHg 62%
15:00 +25°C° 0.4 mm 3 mps 753 mmHg 64%
16:00 +24°C° 0.4 mm 3 mps 753 mmHg 67%
17:00 +22°C° 0.5 mm 3 mps 753 mmHg 73%
18:00 +21°C° 0.5 mm 2 mps 753 mmHg 79%
19:00 +20°C° 0.5 mm 2 mps 752 mmHg 85%
20:00 +20°C° 0 mm 1 mps 752 mmHg 87%
21:00 +19°C° 0 mm 1 mps 752 mmHg 89%
22:00 +16°C° 0 mm 1 mps 752 mmHg 90%
23:00 +16°C° 0 mm 1 mps 752 mmHg 91%

29 June, Tuesday

Time Temperature Precipitation Wind Pressure Humidity
00:00 +15°C° 0 mm 0 mps 752 mmHg 91%
01:00 +14°C° 0 mm 0 mps 752 mmHg 91%
02:00 +14°C° 0 mm 0 mps 752 mmHg 91%
03:00 +15°C° 0 mm 1 mps 752 mmHg 91%
04:00 +15°C° 0 mm 1 mps 752 mmHg 91%
05:00 +18°C° 0 mm 1 mps 752 mmHg 86%
06:00 +20°C° 0 mm 1 mps 752 mmHg 81%
07:00 +19°C° 0 mm 0 mps 752 mmHg 76%
08:00 +23°C° 0 mm 1 mps 751 mmHg 70%
09:00 +24°C° 0 mm 1 mps 751 mmHg 64%
10:00 +25°C° 0 mm 2 mps 751 mmHg 58%
11:00 +26°C° 0 mm 2 mps 751 mmHg 56%
12:00 +27°C° 0 mm 2 mps 751 mmHg 54%
13:00 +27°C° 0 mm 2 mps 750 mmHg 52%
14:00 +27°C° 0 mm 2 mps 750 mmHg 53%
15:00 +27°C° 0 mm 2 mps 750 mmHg 54%
16:00 +27°C° 0 mm 2 mps 750 mmHg 55%
17:00 +26°C° 0 mm 2 mps 749 mmHg 62%
18:00 +25°C° 0 mm 2 mps 749 mmHg 69%
19:00 +23°C° 0 mm 1 mps 749 mmHg 77%
20:00 +22°C° 0 mm 1 mps 749 mmHg 79%
21:00 +20°C° 0 mm 1 mps 749 mmHg 82%
22:00 +19°C° 0 mm 1 mps 749 mmHg 84%
23:00 +18°C° 0 mm 1 mps 749 mmHg 85%

30 June, Wednesday

Time Temperature Precipitation Wind Pressure Humidity
00:00 +18°C° 0 mm 1 mps 749 mmHg 85%
01:00 +16°C° 0 mm 1 mps 749 mmHg 86%
02:00 +16°C° 0 mm 1 mps 749 mmHg 86%
03:00 +16°C° 0 mm 1 mps 749 mmHg 85%
04:00 +16°C° 0 mm 1 mps 749 mmHg 85%
05:00 +18°C° 0 mm 1 mps 749 mmHg 80%
06:00 +20°C° 0 mm 1 mps 749 mmHg 74%
07:00 +22°C° 0 mm 1 mps 749 mmHg 69%
08:00 +23°C° 0 mm 2 mps 749 mmHg 63%
09:00 +24°C° 0 mm 2 mps 749 mmHg 58%
10:00 +25°C° 0 mm 2 mps 749 mmHg 53%
11:00 +26°C° 0 mm 2 mps 749 mmHg 51%
12:00 +27°C° 0 mm 2 mps 749 mmHg 49%
13:00 +27°C° 0 mm 2 mps 749 mmHg 48%
14:00 +27°C° 0 mm 2 mps 748 mmHg 49%
15:00 +27°C° 0 mm 2 mps 748 mmHg 51%
16:00 +27°C° 0 mm 2 mps 748 mmHg 52%
17:00 +26°C° 0 mm 2 mps 748 mmHg 60%
18:00 +24°C° 0 mm 2 mps 748 mmHg 68%
19:00 +23°C° 0 mm 2 mps 748 mmHg 76%
20:00 +20°C° 0 mm 2 mps 749 mmHg 78%
21:00 +19°C° 0 mm 2 mps 749 mmHg 80%
22:00 +17°C° 0 mm 2 mps 749 mmHg 83%
23:00 +18°C° 0 mm 1 mps 749 mmHg 81%
Show more

We Need Your Consent

Meteoprog and our Service Providers may store and access personal data such as cookies, device identifiers or other similar technologies on your device and process such data to personalise content and ads, as well as provide social media features and to analyse the traffic.

  • Store and/or access information on your device

    Cookies, device identifiers or other information can be stored or accessed on your device for the purposes indicated above.

  • Personalised ads and content, ad and content measurement, audience insights, and products development

    Ads and content can be personalised based on a profile. More data can be added to better personalise ads and content. Ad and content performance can be measured. Insights about the audience who saw the ads and content can be derived. Such data can be used to develop or improve user’s experience, systems and software.

By clicking ‘I Agree’ you will allow the use of indicated cookies, device identifiers, web beacons or other similar technologies. Your settings can be changed in the browser on your device.

For certain purposes, legitimate interests may be relied on, rather than consent. You can read more about this in our Privacy and Cookie Policy.